Regional Weather Roundup
Issued by NWS State College, PA

Home | Current Version | Previous Version | Text Only | Print | Product List | Glossary On
Versions: 1 2 3 4 5 6 7 8 9 10 11 12 13 14 15 16 17 18 19 20 21 22 23 24 25 26 27 28 29 30 31 32 33 34 35 36 37 38 39 40 41 42 43 44 45 46 47 48 49 50
000
ASUS41 KCTP 231010
RWRCTP

REGIONAL WEATHER ROUNDUP
NATIONAL WEATHER SERVICE STATE COLLEGE PA
600 AM EDT TUE SEP 23 2014

Note: "fair" indicates few or no clouds below 12,000 feet with no
significant weather and/or obstructions to visibility.

* = STATION THAT DOES NOT REPORT PRECIPITATION /E.G. RAIN...SNOW...ETC/
    THUNDER OR FOG.

PAZ002>004-007>009-013>016-020>023-029>032-231100-
WESTERN PENNSYLVANIA

CITY           SKY/WX    TMP DP  RH WIND       PRES   REMARKS
ERIE           CLEAR     46  41  82 S7        30.30R
MEADVILLE      CLEAR     41  39  93 CALM      30.30S
FRANKLIN*      CLEAR     37  34  87 CALM      30.32R
NEW CASTLE       N/A     37  37 100 CALM      30.33R FOG
BEAVER COUNTY  NOT AVBL
BUTLER*        CLEAR     37  34  87 CALM      30.32S
PITTSBURGH INT CLEAR     40  38  93 CALM      30.31R
PITTSBURGH     CLEAR     44  40  85 CALM      30.31R
INDIANA*       CLEAR     39  37  93 CALM      30.35R
LATROBE        CLEAR     39  39 100 CALM      30.33R FOG
WASHINGTON CO* CLEAR     36  34  93 CALM      30.33R
$$

PAZ004>006-010>012-017>019-024>028-033>037-041-042-045-046-049>053-231100-
CENTRAL PENNSYLVANIA

CITY           SKY/WX    TMP DP  RH WIND       PRES   REMARKS
BRADFORD       CLEAR     37  34  89 CALM      30.29R
DUBOIS         CLEAR     38  37  97 CALM      30.29R
CLEARFIELD     CLEAR     38  37  97 CALM      30.30S
JOHNSTOWN      CLEAR     41  38  89 CALM      30.29R
ALTOONA        CLEAR     39  38  96 S3        30.31R
STATE COLLEGE  CLEAR     41  39  93 CALM      30.30R
WILLIAMSPORT   PTCLDY    42  38  85 NW3       30.29R
SELINSGROVE    CLEAR     40  38  93 NW3       30.30R
FT INDIANTOWN  CLEAR     42  42 100 CALM      30.29R
CAPITAL CITY   CLEAR     48  42  80 W5        30.30R
HARRISBURG     CLEAR     50  42  74 NW7       30.29R
YORK           CLEAR     42  40  92 W3        30.29R
$$

PAZ038>040-043-044-047-048-054-055-060>062-067>071-231100-
EASTERN PENNSYLVANIA

CITY           SKY/WX    TMP DP  RH WIND       PRES   REMARKS
SCRANTON       CLEAR     42  39  89 E6        30.28R
MOUNT POCONO   CLEAR     44  38  79 NW5       30.25R
ALLENTOWN      CLEAR     43  38  82 W5        30.27R
QUAKERTOWN*    SUNNY     46  39  76 N6        30.27R
READING        CLEAR     45  40  82 CALM      30.28R
LANCASTER      CLEAR     44  39  82 SW5       30.28R
COATESVILLE    SUNNY     45  39  81 NW8       30.28R
POTTSTOWN      CLEAR     44  40  85 CALM      30.29R
BLUE BELL      CLEAR     46  41  81 CALM      30.26R
DOYLESTOWN     CLEAR     45  40  82 CALM      30.26R
WILLOW GROVE   NOT AVBL
NORTH PHILA    CLEAR     49  38  65 W5        30.28R
PHILADELPHIA   CLEAR     53  40  61 VRB5      30.28R
$$



USA.gov is the U.S. government's official web portal to all federal, state and local government web resources and services.